星链-2569 (STARLINK-2569 )

导读

STARLINK-2569是美国太空探索技术公司(SpaceX)星链(Starlink)星座的成员,于2021年4月29日成功发射。作为星链低轨互联网星座的一员,它运行在近地轨道,依托星链整体组网架构,为全球偏远地区、海洋空域等场景提供高速卫星互联网接入服务,支撑宽带通信、应急联网等多元应用,是SpaceX打造全球卫星互联网布局的重要组成部分。

基本信息
目录编号:
48277
目录名称:
STARLINK-2569
国际标识:
2021-036B
轨道中心:
EARTH
卫星名称:
星链-2569
卫星全名:
星链-2569 (STARLINK-2569 )
卫星状态:
在轨 (已飞行1876 天)
发射日期:
2021-04-29 UTC
国别 :
美国 (US)
星等 :
--
轨道信息
数据来源 国际轨道数据
星历时间: 2026-06-17T19:57:43+0800
1天前
查看轨道信息
半长轴: 6848.201km
偏心率: 0.0001498
轨道倾角: 53.124°
近地点辐角 243.500°
升交点赤经 268.665°
平近点角 116.585°
近地点: 469.038km
远地点: 471.09km
周期: 93.999分钟
每日圈数: 15.319268
详细信息
固有亮度:
5
最大亮度:
2.5
卫星平台:
Starlink V1.0
覆盖范围:
全球
运营商:
太空探索技术公司
运营商所在国:
美国
制造商(研发单位):
太空探索技术公司
制造商所在国:
美国
使用方式:
暂无
卫星简介
星链(Starlink)计划是由太空探索技术公司(SpaceX)提出的一个巨型低轨卫星互联网星座项目,计划在2019年至2024年间在太空搭建由约1.2万颗卫星组成的“星链”网络,其中1584颗将部署在地球上空550千米处的近地轨道,并从2020年开始工作。该卫星仍在工作。
2D轨道图
3D轨道图
轨道高度分析图
轨道倾角分析图
轨道综合分析图
查看轨道综合分析图